Regional Weather Roundup
Issued by NWS Grand Forks, ND

Home | Current Version | Previous Version | Graphics & Text | Print | Product List | Glossary On
Versions: 1 2 3 4 5 6 7 8 9 10 11 12 13 14 15 16 17 18 19 20 21 22 23 24 25 26 27 28 29 30 31 32 33 34 35 36 37 38 39 40 41 42 43 44 45 46 47 48 49 50
000
ASUS43 KFGF 301231
RWRFGF
PRAIRIE TO PINES  WEATHER ROUNDUP
NATIONAL WEATHER SERVICE EASTERN NORTH DAKOTA/GRAND FORKS ND
700 AM CDT TUE SEP 30 2014

 **SATELLITE DATA USED TO AUGMENT SKY COVER AT AUTOMATED STATIONS**
 *****  WEATHER ACROSS EASTERN NORTH DAKOTA  *****

CITY           SKY/WX    TMP DP  RH WIND       PRES   REMARKS
GRAND FORKS    PTCLDY    43  41  93 SE9       29.96F
6HR MIN TEMP:  42; 6HR MAX TEMP:  46;

GRAND FRKS AFB MOCLDY    41  39  93 SE10      29.94F
GRAND FRKS NWS   N/A     39 N/A N/A SE5         N/A
DEVILS LAKE    CLOUDY    46  39  76 SE15      29.85F
6HR MIN TEMP:  46; 6HR MAX TEMP:  50;

FARGO          CLOUDY    45  42  89 SE12      29.95F
WAHPETON ARPT  CLOUDY    45  41  87 SE16G22   29.95F
$$

 ***** WEATHER ACROSS CENTRAL AND WESTERN NORTH DAKOTA  *****

CITY           SKY/WX    TMP DP  RH WIND       PRES   REMARKS
BISMARCK       CLOUDY    54  50  86 E13       29.75F
6HR MIN TEMP:  53; 6HR MAX TEMP:  56;

MINOT          CLOUDY    50  47  89 E10       29.78F
6HR MIN TEMP:  50; 6HR MAX TEMP:  52;

JAMESTOWN      CLOUDY    46  44  93 SE16G25   29.85F
6HR MIN TEMP:  46; 6HR MAX TEMP:  49;

MINOT AFB      CLOUDY    48  48 100 SE13      29.77F FOG
GARRISON         N/A     52  51  97 E12       29.75F
WILLISTON      HVY RAIN  52  51  97 E5        29.72S FOG
6HR MIN TEMP:  53; 6HR MAX TEMP:  54; 6HR PCP:  0.18;

DICKINSON      LGT RAIN  51  50  96 E12       29.67F VSB 3/4
6HR MIN TEMP:  51; 6HR MAX TEMP:  52; 6HR PCP:  0.20;

HETTINGER      CLOUDY    53  52  96 E13       29.67F
6HR MIN TEMP:  51; 6HR MAX TEMP:  54; 6HR PCP:  0.45;

$$

 *****  OTHER AIRPORT OBSERVATIONS IN OUR AREA  *****

CITY           SKY/WX    TMP DP  RH WIND       PRES   REMARKS
WALHALLA       CLOUDY    41  41 100 SE10      29.95F
GRAFTON AIRPOR FAIR      39  39 100 E8        29.96F
VALLEY CITY AR CLOUDY    45  45 100 SE17G24   29.89F
CANDO          CLOUDY    46  45  93 SE16      29.87F
CAVALIER APRT  CLOUDY    41  39  93 SE5       29.96F
GWINNER        CLOUDY    46  46 100 E16G23    29.89F
SHEYENNE NWR     N/A     45  43  92 SE14      29.95S
ROLLA          CLOUDY    45  45 100 SE10      29.87F
 ***** THE ABOVE OBSERVATIONS ARE NON NWS ARE NOT QUALITY
       CONTROLLED AND MAY MIS-REPORT RAIN FOR SNOW...
$$

  *****  WEATHER ACROSS NORTHERN MINNESOTA  *****

CITY           SKY/WX    TMP DP  RH WIND       PRES   REMARKS
FLAG ISLAND    CLOUDY    43  41  93 SE10      30.06F
WARROAD        CLOUDY    45  39  81 SE15      30.05F
ROSEAU         CLOUDY    45  39  81 E10       30.02F
HALLOCK        PTCLDY    39  37  93 E7        29.98F
THF RVR FALLS  CLOUDY    43  41  93 E13       29.99F
6HR MIN TEMP:  39; 6HR MAX TEMP:  45;

BAUDETTE       CLOUDY    43  39  86 SE7       30.07F
6HR MIN TEMP:  42; 6HR MAX TEMP:  43;

WASKISH        CLOUDY    43  41  93 E7        30.06F
CROOKSTON      CLEAR     39  39 100 SE8       29.98F
STEPHEN NDAWN    N/A     39  39 100 SE7         N/A
GREENBUSH NDAW   N/A     43  41  93 E9          N/A
$$
  *****  WEATHER ACROSS CENTRAL AND WEST MINNESOTA  *****

CITY           SKY/WX    TMP DP  RH WIND       PRES   REMARKS
FOSSTON        CLOUDY    41  39  93 SE8       30.00S
BEMIDJI        CLOUDY    42  40  92 SE13G18   30.03S
PARK RAPIDS    CLOUDY    40  38  93 SE13      30.03F
6HR MIN TEMP:  40; 6HR MAX TEMP:  44;

ELBOW LAKE     CLOUDY    42  41  97 E13G20    29.97F
6HR MIN TEMP:  42; 6HR MAX TEMP:  45;

WADENA         CLOUDY    39  37  93 SE12      30.03R
DETROIT LAKES  CLOUDY    43  41  93 SE18      30.00S
MOORHEAD       NOT AVBL
FERGUS FALLS   CLOUDY    43  41  93 SE13      29.98F
MORRIS MN      CLOUDY    45  43  93 SE15G22   29.97S
STAPLES        CLOUDY    39  37  93 SE6       30.04S
$$
  *****  WEATHER ELSEWHERE ACROSS MINNESOTA  *****

CITY           SKY/WX    TMP DP  RH WIND       PRES   REMARKS
DULUTH         CLOUDY    42  38  85 E9        30.12F
6HR MIN TEMP:  42; 6HR MAX TEMP:  44;

INTRNTL FALLS  CLOUDY    42  39  89 SE9       30.11F
6HR MIN TEMP:  41; 6HR MAX TEMP:  43;

ELY            CLOUDY    37  36  93 SE5       30.14S
CLOQUET        CLOUDY    43  39  87 E9        30.11F
WHEATON        CLOUDY    43  39  87 E17       29.97F
BRAINERD       CLOUDY    42  40  92 E6        30.06F
6HR MIN TEMP:  40; 6HR MAX TEMP:  42;

HIBBING        CLOUDY    42  38  85 SE8       30.12S
6HR MIN TEMP:  42; 6HR MAX TEMP:  44;

ALEXANDRIA     CLOUDY    40  38  93 E15       30.02F FOG
6HR MIN TEMP:  40; 6HR MAX TEMP:  43;

SAINT CLOUD    CLOUDY    43  40  89 E7        30.06F
6HR MIN TEMP:  42; 6HR MAX TEMP:  45;

MINNEAPOLIS    CLOUDY    42  38  85 E14       30.08S
6HR MIN TEMP:  42; 6HR MAX TEMP:  44;

$$

  *****  WEATHER ACROSS SOUTH DAKOTA  *****

CITY           SKY/WX    TMP DP  RH WIND       PRES   REMARKS
SIOUX FALLS    MOCLDY    52  49  89 E13       29.87F
6HR MIN TEMP:  52; 6HR MAX TEMP:  54;

BROOKINGS      NOT AVBL
WATERTOWN      CLOUDY    47  45  93 SE12G22   29.88F
6HR MIN TEMP:  47; 6HR MAX TEMP:  50;

HURON          CLOUDY    54  50  86 E18G24    29.77F
6HR MIN TEMP:  54; 6HR MAX TEMP:  55;

SISSETON         N/A     46  43  89 SE15G23   29.92F
ABERDEEN       MOCLDY    52  48  86 E10       29.80F
6HR MIN TEMP:  51; 6HR MAX TEMP:  54;

MITCHELL       CLOUDY    55  52  89 SE17G25   29.79F
PIERRE         CLOUDY    57  56  96 E25G32    29.60F
6HR MIN TEMP:  57; 6HR MAX TEMP:  60; 6HR PCP:  0.04;

MOBRIDGE       LGT RAIN  54  52  93 E16       29.67F FOG
RAPID CITY     CLOUDY    54  53  97 N15       29.49F
6HR MIN TEMP:  52; 6HR MAX TEMP:  54; 6HR PCP:  0.77;

$$

  *****  SOME WEATHER IN NEARBY STATES *****

CITY           SKY/WX    TMP DP  RH WIND       PRES   REMARKS
GLASGOW MT     CLOUDY    51  49  92 SE9       29.66F
6HR MIN TEMP:  49; 6HR MAX TEMP:  52;

GREAT FALLS MT CLOUDY    52  45  77 SW15      29.69S
6HR MIN TEMP:  52; 6HR MAX TEMP:  56; 6HR PCP: TRACE;

CHEYENNE WY    CLOUDY    50  36  58 W20G26    29.82R
6HR MIN TEMP:  45; 6HR MAX TEMP:  50; 6HR PCP:  0.02;

SCOTTSBLUFF NE LGT RAIN  53  49  86 SW15G24   29.68S
6HR MIN TEMP:  50; 6HR MAX TEMP:  53; 6HR PCP:  0.94;

OMAHA NE       CLOUDY    64  58  80 SE7       29.88F
6HR MIN TEMP:  63; 6HR MAX TEMP:  67;

DES MOINES IA  CLOUDY    59  56  89 E8        29.97R FOG
6HR MIN TEMP:  58; 6HR MAX TEMP:  63;

DAVENPORT IA   NOT AVBL
CHICAGO IL     DRIZZLE   47  44  90 N12       30.05R FOG
6HR MIN TEMP:  48; 6HR MAX TEMP:  54; 6HR PCP: TRACE;

EAU CLAIRE WI  CLOUDY    41  36  82 E12       30.10F
6HR MIN TEMP:  41; 6HR MAX TEMP:  43;

LA CROSSE WI   CLOUDY    47  41  80 SE7       30.10S
6HR MIN TEMP:  46; 6HR MAX TEMP:  49;

$$

  *****  SOME NATIONAL WEATHER *****

CITY           SKY/WX    TMP DP  RH WIND       PRES   REMARKS
LA GUARDIA NY  CLOUDY    68  61  78 N5        29.95R
6HR MIN TEMP:  68; 6HR MAX TEMP:  71;

RALEIGH NC     FOG       63  61  93 CALM      29.95R VSB 1
6HR MIN TEMP:  61; 6HR MAX TEMP:  63;

ATLANTA GA     MOCLDY    66  63  90 E5        29.97R
6HR MIN TEMP:  66; 6HR MAX TEMP:  68; 6HR PCP: TRACE;

NEW ORLEANS LA PTCLDY    75  71  87 E3        29.88R
6HR MIN TEMP:  73; 6HR MAX TEMP:  77;

OKLAHOMA CITY  PTCLDY    62  58  86 S6        29.92R
6HR MIN TEMP:  59; 6HR MAX TEMP:  67;

ALBUQUERQUE NM CLEAR     52  36  54 NE5       30.05R
6HR MIN TEMP:  47; 6HR MAX TEMP:  61;

SALT LAKE CITY LGT RAIN  53  49  86 E7        29.97S
6HR MIN TEMP:  51; 6HR MAX TEMP:  54; 6HR PCP: TRACE;

LOS ANGELES CA CLEAR     62  58  86 E5        29.85S


USA.gov is the U.S. government's official web portal to all federal, state and local government web resources and services.